Location: Gerlach
(40.6516°N, 119.3568°W)
Time: 04:34:25
(UTC-07:00)

Vanguard 2 Rocket - Pass Details

Date: 03 March 2024
Orbit: 555 x 3307 km, 32.9° (Epoch: 23 April)

Event Time Altitude Azimuth Distance (km) Brightness Sun altitude
Rises 20:04:38 0° 266° (W) 5,965 12.2 -25.8°
Reaches altitude 10° 20:11:39 10° 243° (WSW) 5,511 11.4 -27.1°
Maximum altitude 20:18:24 14° 219° (SW) 5,597 11.1 -28.3°
Drops below altitude 10° 20:25:54 10° 196° (SSW) 6,171 11.1 -29.7°
Sets 20:35:13 0° 175° (S) 7,271 11.3 -31.3°
